Osoyoos, British Columbia

12:55 AM PDT on April 22, 2018 (GMT -0700)
Osoyoos

Weather History for CWYY - April, 2014

Change the Weather History Date:

Friday, April 11, 2014

  Actual Average (KOMK) Record (KOMK)
Temperature  
Mean Temperature 52 °F 49 °F  
Max Temperature 67 °F 62 °F 80 °F (1943)
Min Temperature 38 °F 36 °F 24 °F (1975)
Degree Days  
Heating Degree Days 12 16  
Month to date heating degree days 186  
Since 1 July heating degree days 5776  
Cooling Degree Days 0 0  
Month to date cooling degree days 0  
Year to date cooling degree days 0  
Growing Degree Days 2 (Base 50)    
Moisture  
Dew Point 31 °F    
Average Humidity 45    
Maximum Humidity 81    
Minimum Humidity 11    
Precipitation  
Precipitation 0.12 in 0.03 in 0.39 in (2005)
Month to date precipitation 0.36  
Year to date precipitation 4.85  
Sea Level Pressure  
Sea Level Pressure 29.93 in    
Wind  
Wind Speed 4 mph ()    
Max Wind Speed 13 mph    
Max Gust Speed 22 mph    
T = Trace of Precipitation, MM = Missing Value Source: Averaged Metar Reports

Daily Weather History Graph

Daily Weather History Graph

Search for Another Location

Airport or City:

Astronomy

Apr. 11, 2014 Rise Set
Actual Time 6:14 AM PDT 7:44 PM PDT
Civil Twilight 5:41 AM PDT 8:17 PM PDT
Nautical Twilight 5:01 AM PDT 8:57 PM PDT
Astronomical Twilight 4:17 AM PDT 9:41 PM PDT
Moon 4:13 PM PDT (4/11) 4:30 AM PDT (4/11)
Length of Visible Light 14h 35m
Length of Day
13h 29m
Waxing Gibbous, 87% of the Moon is Illuminated
Apr 11
Waxing Gibbous
Apr 15
Full
Apr 22
Last Quarter
Apr 28
New
May 6
First Quarter

Hourly Weather History & Observations

Time (PDT) Temp. Dew Point Humidity Pressure Visibility Wind Dir Wind Speed Gust Speed Precip Events Conditions
12:00 AM 50.2 °F 36.0 °F 58% 29.99 in - SSE 3.5 mph - N/A   Unknown
1:00 AM 56.7 °F 34.9 °F 44% 29.98 in - NNW 5.8 mph - N/A   Unknown
2:00 AM 52.7 °F 35.8 °F 53% 29.97 in - WNW 3.5 mph - N/A   Unknown
3:00 AM 49.1 °F 37.6 °F 64% 29.98 in - North 3.5 mph - N/A   Unknown
4:00 AM 47.5 °F 36.7 °F 66% 29.97 in - NNE 3.5 mph - N/A   Unknown
5:00 AM 43 °F 35 °F 65% 29.96 in - ENE 1.2 mph - -  
5:00 AM 42.8 °F 35.1 °F 74% 29.96 in - ENE 1.2 mph - N/A   Unknown
6:00 AM 39.0 °F 33.6 °F 81% 29.98 in - NE 1.2 mph - N/A   Unknown
7:00 AM 42.4 °F 36.0 °F 78% 29.98 in - ENE 1.2 mph - N/A   Unknown
8:00 AM 46.9 °F 37.2 °F 69% 29.98 in - South 4.6 mph - N/A   Unknown
9:00 AM 50.2 °F 34.3 °F 55% 29.97 in - SSE 4.6 mph - N/A   Unknown
11:00 AM 55 °F 34 °F 33% 29.95 in - SW 2.3 mph - -  
11:00 AM 54.9 °F 34.2 °F 46% 29.95 in - SW 2.3 mph - N/A   Unknown
12:00 PM 60.4 °F 33.8 °F 37% 29.92 in - SW 4.6 mph - N/A   Unknown
1:00 PM 64.2 °F 29.5 °F 27% 29.89 in - SSW 2.3 mph - N/A   Unknown
2:00 PM 65.8 °F 25.5 °F 22% 29.87 in - NNW 9.2 mph - N/A   Unknown
4:00 PM 65.7 °F 25.7 °F 22% 29.86 in - NNW 10.4 mph - N/A   Unknown
5:00 PM 64 °F 24 °F 11% 29.87 in - NNW 12.7 mph - -  
5:00 PM 63.9 °F 23.5 °F 22% 29.87 in - NNW 12.7 mph 21.9 mph N/A   Unknown
6:00 PM 62.8 °F 24.8 °F 24% 29.88 in - NNW 11.5 mph 19.6 mph N/A   Unknown
7:00 PM 59.7 °F 24.4 °F 26% 29.88 in - North 11.5 mph 21.9 mph N/A   Unknown
8:00 PM 57.6 °F 24.8 °F 28% 29.90 in - North 10.4 mph - N/A   Unknown
9:00 PM 57.0 °F 24.6 °F 29% 29.92 in - North 11.5 mph 18.4 mph N/A   Unknown
10:00 PM 52.7 °F 31.6 °F 45% 29.94 in - NW 4.6 mph - N/A   Unknown
11:00 PM 51 °F 33 °F 37% 29.94 in - NW 6.9 mph - -  
11:00 PM 51.3 °F 31.5 °F 47% 29.94 in - NW 6.9 mph - N/A   Unknown